Fond du Lac, WI

3:59 AM CST on February 21, 2017 (GMT -0600)
Fond du Lac County

Weather History for KFLD - February, 2014

Change the Weather History Date:

Wednesday, February 5, 2014

  Actual Average Record
Temperature  
Mean Temperature 10 °F -  
Max Temperature 16 °F 23 °F 50 °F (1964)
Min Temperature 3 °F 8 °F -18 °F (1979)
Degree Days  
Heating Degree Days 54    
Moisture  
Dew Point 4 °F    
Average Humidity 70    
Maximum Humidity 80    
Minimum Humidity 61    
Precipitation  
Precipitation 0.00 in - - ()
Sea Level Pressure  
Sea Level Pressure 30.33 in    
Wind  
Wind Speed 16 mph (North)    
Max Wind Speed 24 mph    
Max Gust Speed 32 mph    
Visibility 8 miles    
Events Snow    
Averages and records for this station are not official NWS values.
T = Trace of Precipitation, MM = Missing Value Source: NWS Daily Summary

Daily Weather History Graph

Daily Weather History Graph

Search for Another Location

Airport or City:

Trip Planner

Search our weather history database for the weather conditions in past years. The results will help you decide how hot, cold, wet, or windy it might be!

Date:

Astronomy

Feb. 05, 2014 Rise Set
Actual Time 7:06 AM CST 5:10 PM CST
Civil Twilight 6:35 AM CST 5:40 PM CST
Nautical Twilight 6:01 AM CST 6:14 PM CST
Astronomical Twilight 5:28 AM CST 6:48 PM CST
Moon 10:06 AM CST (2/5) No Moon Set
Length of Visible Light 11h 04m
Length of Day
10h 04m
Waxing Crescent, 39% of the Moon is Illuminated
Feb 5
Waxing Crescent
Feb 6
First Quarter
Feb 14
Full
Feb 22
Last Quarter
Mar 1
New

Hourly Weather History & Observations

Time (CST) Temp. Windchill Dew Point Humidity Pressure Visibility Wind Dir Wind Speed Gust Speed Precip Events Conditions
12:53 AM 15.1 °F -0.6 °F 8.1 °F 74% 30.26 in 10.0 mi NNE 16.1 mph - N/A   Overcast
1:53 AM 16.0 °F 0.6 °F 10.0 °F 77% 30.26 in 10.0 mi North 16.1 mph - N/A   Overcast
2:53 AM 16.0 °F 0.1 °F 10.0 °F 77% 30.25 in 10.0 mi NNE 17.3 mph - 0.00 in   Overcast
3:53 AM 15.1 °F -1.6 °F 9.0 °F 77% 30.25 in 4.0 mi North 18.4 mph - 0.00 in Snow Light Snow
4:53 AM 14.0 °F -4.7 °F 9.0 °F 80% 30.27 in 2.5 mi NNE 23.0 mph - 0.00 in Snow Light Snow
4:59 AM 14.0 °F -3.9 °F 9.0 °F 80% 30.21 in 1.5 mi NNE 20.7 mph - 0.00 in Snow Light Snow
5:20 AM 14.0 °F -4.3 °F 9.0 °F 80% 30.22 in 1.0 mi North 21.9 mph 29.9 mph 0.00 in Snow Light Snow
5:44 AM 14.0 °F -4.3 °F 8.1 °F 77% 30.22 in 0.8 mi NNE 21.9 mph - 0.00 in Snow Light Snow
5:53 AM 14.0 °F -3.9 °F 8.1 °F 77% 30.26 in 1.0 mi NNE 20.7 mph - 0.00 in Snow Light Snow
6:14 AM 12.9 °F -6.5 °F 7.0 °F 77% 30.22 in 1.2 mi NNE 24.2 mph 32.2 mph 0.00 in Snow Light Snow
6:29 AM 12.9 °F -5.3 °F 7.0 °F 77% 30.22 in 2.0 mi NNE 20.7 mph - 0.00 in Snow Light Snow
6:53 AM 12.9 °F -6.5 °F 6.1 °F 74% 30.29 in 2.5 mi NNE 24.2 mph 31.1 mph 0.00 in Snow Blowing Snow
7:05 AM 12.9 °F -4.4 °F 6.1 °F 74% 30.24 in 6.0 mi NNE 18.4 mph - N/A Snow Blowing Snow
7:53 AM 12.9 °F -4.9 °F 6.1 °F 74% 30.31 in 8.0 mi NNE 19.6 mph 25.3 mph N/A   Overcast
8:43 AM 12.9 °F -3.9 °F 3.9 °F 67% 30.29 in 10.0 mi North 17.3 mph - N/A   Overcast
8:53 AM 12.9 °F -2.8 °F 5.0 °F 71% 30.34 in 10.0 mi North 15.0 mph - N/A   Overcast
9:53 AM 12.0 °F -4.5 °F 3.9 °F 70% 30.36 in 10.0 mi North 16.1 mph - N/A   Partly Cloudy
10:53 AM 12.9 °F -3.9 °F 3.9 °F 67% 30.37 in 10.0 mi North 17.3 mph - N/A   Scattered Clouds
11:53 AM 12.9 °F -3.4 °F 3.9 °F 67% 30.37 in 10.0 mi NNE 16.1 mph - N/A   Mostly Cloudy
12:07 PM 12.9 °F -2.2 °F 3.9 °F 67% 30.31 in 10.0 mi North 13.8 mph - N/A   Scattered Clouds
12:18 PM 14.0 °F -1.4 °F 5.0 °F 67% 30.31 in 10.0 mi North 15.0 mph - N/A   Mostly Cloudy
12:53 PM 12.9 °F -1.6 °F 3.0 °F 65% 30.36 in 10.0 mi North 12.7 mph - N/A   Overcast
1:53 PM 12.9 °F -1.6 °F 1.9 °F 62% 30.37 in 10.0 mi North 12.7 mph - N/A   Overcast
2:53 PM 12.9 °F -0.2 °F 3.0 °F 65% 30.38 in 10.0 mi NNW 10.4 mph - N/A   Overcast
3:30 PM 12.9 °F -0.2 °F 1.9 °F 62% 30.34 in 10.0 mi NNW 10.4 mph - N/A   Overcast
3:53 PM 12.9 °F 0.7 °F 3.0 °F 65% 30.40 in 10.0 mi NNW 9.2 mph - N/A   Overcast
4:42 PM 12.9 °F 0.7 °F 3.0 °F 65% 30.36 in 10.0 mi NNW 9.2 mph - N/A   Overcast
4:53 PM 12.9 °F 1.6 °F 1.9 °F 62% 30.41 in 10.0 mi NNW 8.1 mph - N/A   Overcast
5:53 PM 12.9 °F 3.8 °F 3.0 °F 65% 30.43 in 10.0 mi NW 5.8 mph - N/A   Overcast
6:53 PM 12.0 °F -1.3 °F 1.0 °F 61% 30.43 in 10.0 mi WNW 10.4 mph - N/A   Overcast
7:19 PM 10.9 °F -1.8 °F 1.0 °F 64% 30.38 in 10.0 mi WNW 9.2 mph - N/A   Overcast
7:53 PM 10.9 °F -0.8 °F 1.0 °F 64% 30.43 in 10.0 mi WNW 8.1 mph - N/A   Overcast
8:53 PM 8.1 °F -4.3 °F -0.9 °F 67% 30.44 in 10.0 mi WNW 8.1 mph - N/A   Partly Cloudy
9:53 PM 7.0 °F -3.3 °F -2.0 °F 67% 30.45 in 10.0 mi West 5.8 mph - N/A   Clear
10:53 PM 5.0 °F -6.9 °F -2.9 °F 70% 30.44 in 10.0 mi WNW 6.9 mph - N/A   Partly Cloudy
11:53 PM 3.9 °F -11.3 °F -2.9 °F 73% 30.43 in 10.0 mi West 10.4 mph - N/A   Clear